﻿TIME_UTC_SECONDS;TIME_UTC_STR;AIR_TEMP;TRACK_TEMP;HUMIDITY;PRESSURE;WIND_SPEED;WIND_DIRECTION;RAIN;
1709802056;07/03/2024 09:00:56;7.33333;12.5;79;1003.52;1.06093;65;-1;
1709802121;07/03/2024 09:02:01;7.38889;12.7;79;1003.45;0;65;-1;
1709802185;07/03/2024 09:03:05;7.38889;12.9;79;1003.49;2.12187;72;-1;
1709802246;07/03/2024 09:04:06;7.44445;13;79;1003.59;0;72;-1;
1709802310;07/03/2024 09:05:10;7.5;13.1;79;1003.66;0;72;-1;
1709802376;07/03/2024 09:06:16;7.55555;13.1;79;1003.69;0;61;-1;
1709802441;07/03/2024 09:07:21;7.55555;13.2;79;1003.66;0;53;-1;
1709802505;07/03/2024 09:08:25;7.55555;13.3;79;1003.62;1.06093;55;-1;
1709802571;07/03/2024 09:09:31;7.66667;13.3;79;1003.62;2.12187;54;-1;
1709802636;07/03/2024 09:10:36;7.72222;13.3;79;1003.62;1.06093;46;-1;
1709802700;07/03/2024 09:11:40;7.72222;13.4;79;1003.56;1.06093;48;-1;
1709802760;07/03/2024 09:12:40;7.72222;13.4;79;1003.56;1.06093;48;-1;
1709802821;07/03/2024 09:13:41;7.72222;13.5;79;1003.56;1.06093;48;-1;
1709802885;07/03/2024 09:14:45;7.72222;13.6;79;1003.66;1.06093;48;-1;
1709802946;07/03/2024 09:15:46;7.72222;13.6;79;1003.62;1.06093;48;-1;
1709803010;07/03/2024 09:16:50;7.72222;13.6;79;1003.52;1.06093;48;-1;
1709803076;07/03/2024 09:17:56;7.72222;13.8;79;1003.45;0;61;-1;
1709803141;07/03/2024 09:19:01;8.16667;13.8;78;1003.39;0;61;-1;
1709803205;07/03/2024 09:20:05;8.22222;14;77;1003.49;1.06093;61;-1;
1709803271;07/03/2024 09:21:11;8.22222;14.1;77;1003.49;0;51;-1;
1709803336;07/03/2024 09:22:16;8.27778;14.2;77;1003.49;1.06093;51;-1;
1709803400;07/03/2024 09:23:20;8.33333;14.3;77;1003.35;2.12187;55;-1;
1709803460;07/03/2024 09:24:20;8.38889;14.3;77;1003.39;3.1828;57;-1;
1709803521;07/03/2024 09:25:21;8.44444;14.3;77;1003.39;1.06093;61;-1;
1709803585;07/03/2024 09:26:25;8.5;14.3;77;1003.39;3.1828;63;-1;
1709803646;07/03/2024 09:27:26;8.55556;14.2;77;1003.35;1.06093;63;-1;
1709803710;07/03/2024 09:28:30;8.55556;14.2;77;1003.32;2.12187;62;-1;
1709803776;07/03/2024 09:29:36;8.61111;14.2;77;1003.29;0;62;-1;
1709803841;07/03/2024 09:30:41;8.66667;14.2;76;1003.25;0;62;-1;
1709803905;07/03/2024 09:31:45;8.66667;14.2;76;1003.32;0;62;-1;
1709803971;07/03/2024 09:32:51;8.66667;14.3;76;1003.29;2.12187;62;-1;
1709804036;07/03/2024 09:33:56;8.66667;14.3;76;1003.22;2.12187;63;-1;
1709804100;07/03/2024 09:35:00;8.77778;14.5;76;1003.18;1.06093;69;-1;
1709804166;07/03/2024 09:36:06;8.77778;14.6;76;1003.12;0;69;-1;
1709804231;07/03/2024 09:37:11;8.77778;14.8;76;1003.12;0;69;-1;
1709804295;07/03/2024 09:38:15;8.77778;14.8;76;1003.15;0;69;-1;
1709804356;07/03/2024 09:39:16;8.88889;14.8;76;1003.15;2.12187;30;-1;
1709804420;07/03/2024 09:40:20;8.94444;14.7;76;1003.08;1.06093;30;-1;
1709804486;07/03/2024 09:41:26;9;14.7;75;1003.15;3.1828;96;-1;
1709804551;07/03/2024 09:42:31;9;14.7;75;1003.05;0;96;-1;
1709804615;07/03/2024 09:43:35;9.05556;14.6;75;1003.08;1.06093;98;-1;
1709804681;07/03/2024 09:44:41;9.05556;14.7;75;1003.05;1.06093;98;-1;
1709804746;07/03/2024 09:45:46;9.05556;14.8;75;1003.12;1.06093;98;-1;
1709804810;07/03/2024 09:46:50;9.05556;15;75;1003.05;1.06093;98;-1;
1709804871;07/03/2024 09:47:51;9.05556;14.9;75;1003.05;1.06093;98;-1;
1709804935;07/03/2024 09:48:55;9.05556;15;75;1002.98;1.06093;98;-1;
1709805001;07/03/2024 09:50:01;9.05556;14.9;75;1002.95;1.06093;98;-1;
1709805066;07/03/2024 09:51:06;9.38889;14.9;75;1003.01;1.06093;34;-1;
1709805130;07/03/2024 09:52:10;9.44444;15;75;1003.08;0;34;-1;
1709805196;07/03/2024 09:53:16;9.44444;15;75;1003.15;0;34;-1;
1709805261;07/03/2024 09:54:21;9.5;15.1;75;1003.15;0;34;-1;
